TimeWET,TemperatureF,Dew PointF,Humidity,Sea Level PressureIn,VisibilityMPH,Wind Direction,Wind SpeedMPH,Gust SpeedMPH,PrecipitationIn,Events,Conditions,WindDirDegrees,DateUTC
12:00 AM,55.4,50.0,82,30.09,5.0,Calm,Calm,-,N/A,,Scattered Clouds,0,2012-11-25 00:00:00
3:00 AM,57,47,60,30.05,,SE,4.6,,,,,140,2012-11-25 03:00:00
6:00 AM,51,47,83,30.04,,East,5.8,,,,,90,2012-11-25 06:00:00
8:00 AM,53.6,50.0,88,30.01,6.2,East,5.8,-,N/A,,Scattered Clouds,100,2012-11-25 08:00:00
8:30 AM,55.4,50.0,82,30.01,6.2,East,4.6,-,N/A,,Scattered Clouds,90,2012-11-25 08:30:00
9:00 AM,60,52,67,30.01,6,East,2.3,,,,Partly Cloudy,90,2012-11-25 09:00:00
9:00 AM,59.0,51.8,77,30.04,6.2,Variable,2.3,-,N/A,,Scattered Clouds,0,2012-11-25 09:00:00
9:30 AM,62.6,51.8,68,30.04,6.2,NE,3.5,-,N/A,,Scattered Clouds,50,2012-11-25 09:30:00
10:00 AM,64.4,48.2,56,30.04,6.2,ENE,5.8,-,N/A,,Scattered Clouds,60,2012-11-25 10:00:00
10:30 AM,66.2,50.0,56,30.04,6.2,NE,6.9,-,N/A,,Scattered Clouds,50,2012-11-25 10:30:00
11:00 AM,68.0,50.0,52,30.04,6.2,NE,4.6,-,N/A,,Scattered Clouds,50,2012-11-25 11:00:00
11:30 AM,69.8,48.2,46,30.01,6.2,Variable,2.3,-,N/A,,Scattered Clouds,0,2012-11-25 11:30:00
12:00 PM,70,50,37,29.97,6,NE,4.6,,,,Scattered Clouds,40,2012-11-25 12:00:00
12:00 PM,69.8,50.0,49,30.01,6.2,NE,5.8,-,N/A,,Scattered Clouds,50,2012-11-25 12:00:00
12:30 PM,69.8,50.0,49,30.01,6.2,NNE,3.5,-,N/A,,Scattered Clouds,20,2012-11-25 12:30:00
1:00 PM,71.6,50.0,46,30.01,6.2,Calm,Calm,-,N/A,,Scattered Clouds,0,2012-11-25 13:00:00
1:30 PM,73.4,50.0,44,29.98,6.2,Calm,Calm,-,N/A,,Scattered Clouds,0,2012-11-25 13:30:00
2:00 PM,73.4,46.4,38,29.98,6.2,ESE,3.5,-,N/A,,Scattered Clouds,110,2012-11-25 14:00:00
2:30 PM,75.2,48.2,38,29.95,6.2,Variable,1.2,-,N/A,,Scattered Clouds,0,2012-11-25 14:30:00
3:00 PM,75,47,26,29.89,6,ENE,3.5,,,,Scattered Clouds,60,2012-11-25 15:00:00
3:00 PM,75.2,48.2,38,29.95,6.2,ENE,3.5,-,N/A,,Scattered Clouds,60,2012-11-25 15:00:00
3:30 PM,75.2,48.2,38,29.95,6.2,NE,3.5,-,N/A,,Scattered Clouds,40,2012-11-25 15:30:00
4:00 PM,75.2,51.8,44,29.95,6.2,ENE,2.3,-,N/A,,Scattered Clouds,60,2012-11-25 16:00:00
4:30 PM,73.4,53.6,50,29.95,6.2,East,3.5,-,N/A,,Scattered Clouds,80,2012-11-25 16:30:00
5:00 PM,73.4,50.0,44,29.95,6.2,NW,3.5,-,N/A,,Scattered Clouds,320,2012-11-25 17:00:00
5:30 PM,71.6,51.8,50,29.95,5.0,Variable,2.3,-,N/A,,Scattered Clouds,0,2012-11-25 17:30:00
6:00 PM,68,52,46,29.91,5,Calm,Calm,,,,Mostly Cloudy,,2012-11-25 18:00:00
6:00 PM,68.0,51.8,56,29.95,5.0,Calm,Calm,-,N/A,,Scattered Clouds,0,2012-11-25 18:00:00
6:30 PM,66.2,51.8,60,29.95,5.0,Calm,Calm,-,N/A,,Mostly Cloudy,0,2012-11-25 18:30:00
7:00 PM,64.4,53.6,68,29.95,5.0,Calm,Calm,-,N/A,,Mostly Cloudy,0,2012-11-25 19:00:00
7:30 PM,64.4,53.6,68,29.95,3.7,Variable,1.2,-,N/A,,Mostly Cloudy,0,2012-11-25 19:30:00
8:00 PM,64.4,53.6,68,29.95,3.7,South,3.5,-,N/A,,Mostly Cloudy,180,2012-11-25 20:00:00
8:30 PM,64.4,51.8,64,29.95,3.7,South,3.5,-,N/A,,Mostly Cloudy,180,2012-11-25 20:30:00
9:00 PM,63,52,58,29.94,3,Calm,Calm,,,,Mostly Cloudy,,2012-11-25 21:00:00
9:00 PM,62.6,51.8,68,29.95,3.1,Calm,Calm,-,N/A,,Mostly Cloudy,0,2012-11-25 21:00:00
9:30 PM,62.6,51.8,68,29.98,6.2,Calm,Calm,-,N/A,,Mostly Cloudy,0,2012-11-25 21:30:00
10:00 PM,60.8,51.8,72,29.98,6.2,Calm,Calm,-,N/A,,Mostly Cloudy,0,2012-11-25 22:00:00
10:30 PM,60.8,53.6,77,29.98,5.6,Calm,Calm,-,N/A,,Mostly Cloudy,0,2012-11-25 22:30:00
11:00 PM,60.8,51.8,72,29.98,6.2,SSE,3.5,-,N/A,,Mostly Cloudy,150,2012-11-25 23:00:00
11:30 PM,60.8,51.8,72,29.95,6.2,Variable,2.3,-,N/A,,Mostly Cloudy,0,2012-11-25 23:30:00